�������l�o���
Date,Time,MP-1(��Sv/h),MP-2(��Sv/h),MP-3(��Sv/h),MP-4(��Sv/h),MP-5(��Sv/h),MP-6(��Sv/h),MP-7(��Sv/h),MP-8(��Sv/h),����,����(m/s),���J
2016/11/28,00:00,1.081,1.787,1.210,2.023,1.387,0.572,1.029,0.955,�k�k��,5.7,�L
2016/11/28,00:10,1.080,1.786,1.209,2.020,1.388,0.573,1.028,0.955,�k�k��,6.8,�L
2016/11/28,00:20,1.078,1.785,1.207,2.021,1.387,0.571,1.029,0.955,�k�k��,7.7,�L
2016/11/28,00:30,1.074,1.785,1.208,2.019,1.387,0.572,1.027,0.955,�k�k��,7.6,�L
2016/11/28,00:40,1.076,1.780,1.206,2.010,1.384,0.571,1.029,0.954,�k��,7.7,�L
2016/11/28,00:50,1.074,1.778,1.205,2.013,1.381,0.572,1.025,0.955,�k�k��,8.0,�L
2016/11/28,01:00,1.075,1.773,1.205,2.008,1.379,0.571,1.026,0.952,�k�k��,7.2,�L
2016/11/28,01:10,1.073,1.769,1.204,2.005,1.378,0.570,1.025,0.951,�k�k��,7.2,�L
2016/11/28,01:20,1.072,1.768,1.203,2.004,1.377,0.571,1.024,0.950,�k�k��,8.3,�L
2016/11/28,01:30,1.073,1.774,1.204,2.007,1.379,0.572,1.024,0.954,�k�k��,8.7,��
2016/11/28,01:40,1.073,1.772,1.204,2.009,1.378,0.572,1.024,0.952,�k,7.4,�L
2016/11/28,01:50,1.072,1.775,1.203,2.004,1.378,0.571,1.026,0.952,�k�k��,8.8,�L
2016/11/28,02:00,1.070,1.772,1.205,2.003,1.379,0.568,1.024,0.953,�k�k��,10.0,�L
2016/11/28,02:10,1.073,1.773,1.202,2.002,1.376,0.570,1.023,0.953,�k,8.7,�L
2016/11/28,02:20,1.076,1.772,1.204,2.002,1.379,0.570,1.025,0.952,�k�k��,8.5,�L
2016/11/28,02:30,1.075,1.775,1.204,2.007,1.381,0.570,1.027,0.953,�k�k��,7.7,�L
2016/11/28,02:40,1.073,1.778,1.205,2.009,1.381,0.570,1.027,0.952,�k�k��,7.4,�L
2016/11/28,02:50,1.076,1.775,1.204,2.007,1.381,0.568,1.028,0.953,�k�k��,8.1,��
2016/11/28,03:00,1.073,1.781,1.205,2.011,1.381,0.568,1.026,0.952,�k�k��,7.9,��
2016/11/28,03:10,1.074,1.781,1.203,2.010,1.382,0.569,1.027,0.952,�k�k��,7.3,��
2016/11/28,03:20,1.073,1.783,1.203,2.010,1.383,0.568,1.027,0.952,�k�k��,8.0,��
2016/11/28,03:30,1.074,1.784,1.203,2.011,1.381,0.568,1.026,0.953,�k�k��,7.7,��
2016/11/28,03:40,1.075,1.785,1.205,2.014,1.382,0.568,1.028,0.952,�k�k��,8.6,��
2016/11/28,03:50,1.075,1.785,1.204,2.012,1.383,0.567,1.029,0.953,�k�k��,7.7,��
2016/11/28,04:00,1.072,1.783,1.204,2.012,1.382,0.568,1.028,0.953,�k�k��,9.9,��
2016/11/28,04:10,1.076,1.784,1.204,2.013,1.386,0.567,1.030,0.953,�k�k��,10.2,��
2016/11/28,04:20,1.073,1.786,1.206,2.012,1.385,0.566,1.031,0.955,�k��,9.6,��
2016/11/28,04:30,1.074,1.789,1.205,2.016,1.385,0.567,1.028,0.954,�k��,7.1,��
2016/11/28,04:40,1.078,1.788,1.206,2.018,1.386,0.567,1.027,0.953,�k��,6.9,�L
2016/11/28,04:50,1.076,1.787,1.205,2.016,1.387,0.567,1.028,0.955,�k�k��,6.3,��
2016/11/28,05:00,1.076,1.791,1.205,2.016,1.386,0.567,1.030,0.955,�k�k��,7.3,��
2016/11/28,05:10,1.079,1.791,1.206,2.018,1.386,0.568,1.028,0.955,�k��,6.0,��
2016/11/28,05:20,1.076,1.789,1.205,2.018,1.390,0.567,1.032,0.953,�k�k��,5.8,��
2016/11/28,05:30,1.078,1.787,1.205,2.019,1.386,0.567,1.031,0.953,�k�k��,6.1,��
2016/11/28,05:40,1.078,1.790,1.208,2.018,1.387,0.566,1.029,0.952,�k��,6.0,��
2016/11/28,05:50,1.078,1.790,1.208,2.018,1.387,0.565,1.031,0.955,�k��,3.6,��
2016/11/28,06:00,1.077,1.790,1.205,2.018,1.387,0.565,1.029,0.954,�k�k��,3.2,��
2016/11/28,06:10,1.075,1.790,1.207,2.021,1.387,0.567,1.031,0.955,�k��,4.6,��
2016/11/28,06:20,1.077,1.791,1.203,2.018,1.388,0.566,1.028,0.955,�k��,3.9,��
2016/11/28,06:30,1.075,1.789,1.205,2.021,1.387,0.566,1.029,0.954,�k��,5.2,��
2016/11/28,06:40,1.079,1.792,1.209,2.019,1.388,0.569,1.031,0.954,�k��,5.5,��
2016/11/28,06:50,1.074,1.791,1.208,2.021,1.387,0.567,1.031,0.956,�k��,5.0,��
2016/11/28,07:00,1.077,1.794,1.208,2.019,1.386,0.567,1.030,0.954,�k��,4.2,��
2016/11/28,07:10,1.078,1.794,1.207,2.022,1.389,0.568,1.032,0.954,�k��,3.5,��
2016/11/28,07:20,1.078,1.792,1.209,2.020,1.391,0.567,1.030,0.953,�k�k��,3.4,��
2016/11/28,07:30,1.077,1.793,1.206,2.021,1.389,0.568,1.033,0.954,�k��,5.8,��
2016/11/28,07:40,1.077,1.793,1.202,2.025,1.389,0.565,1.033,0.956,�k��,4.1,��
2016/11/28,07:50,1.078,1.790,1.207,2.019,1.388,0.566,1.031,0.956,�k��,10.4,��
2016/11/28,08:00,1.080,1.791,1.211,2.021,1.389,0.566,1.030,0.956,�k��,12.7,��
2016/11/28,08:10,1.076,1.792,1.205,2.024,1.390,0.568,1.032,0.957,���k��,8.4,��
2016/11/28,08:20,1.077,1.788,1.203,2.025,1.391,0.567,1.033,0.956,�k��,6.2,��
2016/11/28,08:30,1.079,1.792,1.206,2.026,1.393,0.567,1.029,0.956,�k�k��,5.1,��
2016/11/28,08:40,1.084,1.793,1.205,2.028,1.391,0.567,1.029,0.957,�k�k��,5.4,��
2016/11/28,08:50,1.079,1.800,1.208,2.026,1.391,0.566,1.030,0.956,�k��,6.2,��
2016/11/28,09:00,1.081,1.799,1.206,2.028,1.391,0.567,1.027,0.956,�k��,6.4,��
2016/11/28,09:10,1.079,1.795,1.196,2.027,1.391,0.568,1.031,0.954,�k��,6.4,��
2016/11/28,09:20,1.082,1.795,1.200,2.028,1.392,0.568,1.032,0.957,�k�k��,6.5,��
2016/11/28,09:30,1.081,1.802,1.206,2.029,1.396,0.567,1.030,0.956,�k�k��,7.6,��
2016/11/28,09:40,1.078,1.797,1.206,2.032,1.394,0.568,1.029,0.958,�k�k��,9.5,��
2016/11/28,09:50,1.076,1.799,1.208,2.022,1.396,0.567,1.028,0.956,�k�k��,8.0,��
2016/11/28,10:00,1.076,1.800,1.203,2.025,1.394,0.568,1.028,0.958,�k�k��,6.7,��
2016/11/28,10:10,1.076,1.798,1.196,2.034,1.396,0.568,1.030,0.958,�k,7.0,��
2016/11/28,10:20,1.077,1.803,1.187,2.031,1.396,0.568,1.030,0.959,�k�k��,6.7,��
2016/11/28,10:30,1.078,1.801,1.190,2.032,1.398,0.569,1.030,0.959,�k�k��,6.5,��
2016/11/28,10:40,1.075,1.794,1.197,2.030,1.397,0.566,1.030,0.959,�k,6.9,��
2016/11/28,10:50,1.078,1.784,1.198,2.031,1.398,0.569,1.029,0.960,�k�k��,6.3,��
2016/11/28,11:00,1.078,1.777,1.190,2.032,1.401,0.568,1.030,0.959,�k�k��,6.5,��
2016/11/28,11:10,1.080,1.803,1.196,2.033,1.398,0.569,1.031,0.960,�k�k��,7.2,��
2016/11/28,11:20,1.083,1.805,1.197,2.036,1.401,0.569,1.031,0.959,�k�k��,5.9,��
2016/11/28,11:30,1.081,1.807,1.200,2.036,1.406,0.569,1.031,0.958,�k��,7.1,��
2016/11/28,11:40,1.083,1.805,1.204,2.041,1.404,0.567,1.031,0.958,�k��,10.2,��
2016/11/28,11:50,1.083,1.808,1.200,2.036,1.404,0.569,1.032,0.960,�k��,10.4,��
2016/11/28,12:00,1.084,1.807,1.198,2.034,1.402,0.571,1.032,0.959,�k��,8.7,��
2016/11/28,12:10,1.085,1.807,1.209,2.036,1.402,0.567,1.031,0.962,�k��,6.3,��
2016/11/28,12:20,1.081,1.808,1.214,2.039,1.405,0.569,1.032,0.961,�k��,9.6,��
2016/11/28,12:30,1.085,1.811,1.215,2.040,1.404,0.570,1.032,0.958,�k��,11.9,��
2016/11/28,12:40,1.080,1.810,1.212,2.041,1.405,0.572,1.034,0.962,�k��,9.7,��
2016/11/28,12:50,1.080,1.811,1.215,2.042,1.409,0.571,1.033,0.959,�k��,9.7,��
2016/11/28,13:00,1.083,1.810,1.217,2.046,1.406,0.572,1.034,0.961,���k��,8.5,��
2016/11/28,13:10,1.081,1.808,1.217,2.042,1.406,0.570,1.035,0.958,�k��,9.6,��
2016/11/28,13:20,1.083,1.807,1.218,2.046,1.410,0.570,1.034,0.959,�k��,11.3,��
2016/11/28,13:30,1.086,1.810,1.220,2.046,1.410,0.568,1.034,0.959,�k��,13.5,��
2016/11/28,13:40,1.086,1.807,1.219,2.048,1.411,0.571,1.033,0.958,�k��,11.7,��
2016/11/28,13:50,1.087,1.811,1.220,2.044,1.410,0.573,1.033,0.959,�k��,9.8,��
2016/11/28,14:00,1.086,1.811,1.221,2.048,1.410,0.571,1.034,0.957,�k��,11.1,��
2016/11/28,14:10,1.087,1.812,1.219,2.044,1.409,0.570,1.034,0.958,�k��,9.4,��
2016/11/28,14:20,1.089,1.815,1.215,2.047,1.412,0.571,1.036,0.958,�k��,8.1,��
2016/11/28,14:30,1.087,1.811,1.222,2.048,1.408,0.570,1.037,0.961,�k��,7.1,��
2016/11/28,14:40,1.087,1.810,1.223,2.048,1.411,0.571,1.036,0.961,�k��,7.5,��
2016/11/28,14:50,1.089,1.815,1.223,2.049,1.412,0.571,1.035,0.961,�k��,10.6,��
2016/11/28,15:00,1.085,1.817,1.220,2.049,1.414,0.570,1.036,0.961,�k��,8.0,��
2016/11/28,15:10,1.087,1.813,1.224,2.050,1.415,0.570,1.035,0.962,�k��,8.3,��
2016/11/28,15:20,1.087,1.817,1.225,2.050,1.416,0.572,1.036,0.960,�k��,8.8,��
2016/11/28,15:30,1.088,1.820,1.225,2.047,1.416,0.569,1.035,0.962,�k��,8.9,��
2016/11/28,15:40,1.088,1.820,1.223,2.050,1.414,0.570,1.035,0.963,�k��,8.1,��
2016/11/28,15:50,1.087,1.820,1.225,2.050,1.417,0.570,1.037,0.962,�k��,6.0,��
2016/11/28,16:00,1.086,1.820,1.221,2.048,1.416,0.570,1.037,0.961,�k��,5.9,��
2016/11/28,16:10,1.086,1.821,1.222,2.050,1.418,0.570,1.039,0.960,�k��,3.9,��
2016/11/28,16:20,1.085,1.819,1.225,2.050,1.413,0.571,1.037,0.962,�k��,4.2,��
2016/11/28,16:30,1.088,1.817,1.223,2.047,1.417,0.571,1.038,0.959,�k�k��,4.2,��
2016/11/28,16:40,1.084,1.820,1.225,2.050,1.415,0.570,1.037,0.962,�k�k��,2.9,��
2016/11/28,16:50,1.085,1.821,1.223,2.048,1.415,0.570,1.036,0.962,�k��,1.5,��
2016/11/28,17:00,1.084,1.822,1.222,2.048,1.415,0.569,1.035,0.960,�k��,1.7,��
2016/11/28,17:10,1.084,1.820,1.224,2.048,1.415,0.571,1.036,0.961,�k��,3.0,��
2016/11/28,17:20,1.084,1.822,1.220,2.048,1.418,0.570,1.036,0.961,�k��,3.1,��
2016/11/28,17:30,1.083,1.818,1.221,2.050,1.416,0.570,1.037,0.961,��,1.9,��
2016/11/28,17:40,1.084,1.820,1.221,2.049,1.415,0.570,1.035,0.961,�k��,2.3,��
2016/11/28,17:50,1.086,1.820,1.221,2.048,1.418,0.569,1.035,0.961,�k�k��,2.9,��
2016/11/28,18:00,1.083,1.819,1.220,2.050,1.413,0.569,1.036,0.960,�k,2.6,��
2016/11/28,18:10,1.084,1.819,1.220,2.050,1.413,0.569,1.035,0.961,�k,1.5,��
2016/11/28,18:20,1.083,1.817,1.221,2.048,1.414,0.570,1.035,0.958,�k,2.3,��
2016/11/28,18:30,1.083,1.818,1.220,2.049,1.414,0.570,1.035,0.960,�k,1.5,��
2016/11/28,18:40,1.083,1.818,1.220,2.045,1.414,0.569,1.035,0.960,�k,1.1,��
2016/11/28,18:50,1.084,1.817,1.222,2.049,1.416,0.570,1.034,0.959,���k��,0.8,��
2016/11/28,19:00,1.084,1.818,1.220,2.050,1.417,0.569,1.035,0.958,-,CALM,��
2016/11/28,19:10,1.082,1.816,1.218,2.047,1.411,0.569,1.034,0.958,-,CALM,��
2016/11/28,19:20,1.083,1.819,1.220,2.048,1.416,0.571,1.034,0.961,���쐼,0.6,��
2016/11/28,19:30,1.082,1.815,1.220,2.047,1.414,0.570,1.034,0.958,�k��,1.4,��
2016/11/28,19:40,1.084,1.816,1.221,2.048,1.415,0.569,1.036,0.959,���k��,2.2,��
2016/11/28,19:50,1.082,1.818,1.219,2.047,1.414,0.569,1.035,0.959,�k��,3.2,��
2016/11/28,20:00,1.082,1.818,1.217,2.047,1.415,0.568,1.033,0.960,�k��,2.5,��
2016/11/28,20:10,1.084,1.817,1.218,2.048,1.415,0.568,1.034,0.958,�k��,2.5,��
2016/11/28,20:20,1.083,1.817,1.222,2.047,1.416,0.569,1.033,0.960,�k��,2.3,��
2016/11/28,20:30,1.082,1.822,1.222,2.047,1.414,0.568,1.035,0.960,�k��,1.7,��
2016/11/28,20:40,1.082,1.817,1.220,2.051,1.416,0.569,1.033,0.960,��,1.1,��
2016/11/28,20:50,1.081,1.814,1.217,2.048,1.414,0.568,1.035,0.958,-,CALM,��
2016/11/28,21:00,1.081,1.820,1.217,2.049,1.417,0.568,1.031,0.960,-,CALM,��
2016/11/28,21:10,1.083,1.818,1.220,2.047,1.415,0.568,1.034,0.960,�k��,0.6,��
2016/11/28,21:20,1.083,1.816,1.219,2.047,1.415,0.567,1.034,0.959,-,CALM,��
2016/11/28,21:30,1.083,1.820,1.220,2.048,1.414,0.569,1.033,0.959,-,CALM,��
2016/11/28,21:40,1.081,1.819,1.219,2.047,1.412,0.568,1.035,0.958,�k�k��,1.1,��
2016/11/28,21:50,1.083,1.819,1.215,2.044,1.413,0.567,1.032,0.959,-,CALM,��
2016/11/28,22:00,1.083,1.816,1.219,2.047,1.413,0.569,1.034,0.959,�k�k��,1.7,��
2016/11/28,22:10,1.082,1.818,1.220,2.048,1.414,0.570,1.035,0.959,�k,1.2,��
2016/11/28,22:20,1.084,1.818,1.219,2.046,1.414,0.568,1.033,0.958,�k�k��,2.0,��
2016/11/28,22:30,1.083,1.817,1.218,2.045,1.414,0.569,1.035,0.959,�k��,1.2,��
2016/11/28,22:40,1.082,1.817,1.217,2.048,1.415,0.569,1.035,0.958,-,CALM,��
2016/11/28,22:50,1.084,1.815,1.219,2.049,1.413,0.567,1.035,0.959,���쓌,1.5,��
2016/11/28,23:00,1.082,1.818,1.220,2.048,1.416,0.571,1.035,0.959,�쐼,0.9,��
2016/11/28,23:10,1.084,1.819,1.220,2.047,1.413,0.569,1.034,0.960,-,CALM,��
2016/11/28,23:20,1.084,1.816,1.219,2.048,1.415,0.570,1.042,0.958,���쓌,1.4,��
2016/11/28,23:30,1.081,1.818,1.219,2.050,1.417,0.569,1.033,0.958,��,1.9,��
2016/11/28,23:40,1.084,1.820,1.218,2.050,1.414,0.569,1.034,0.960,��,0.9,��
2016/11/28,23:50,1.083,1.821,1.219,2.049,1.413,0.569,1.033,0.961,�k��,0.9,��
